This is the latest recevied weather packets stored in our database for station/object KF4ERV-4. If no packets are shown the sender has not sent any weather packets the latest 10 day(s).
| Time | Temp. | Humidity | Pressure | Rain* | Wind** | Luminosity | Snow |
|---|---|---|---|---|---|---|---|
| 1787493756 | 21.11° C | 4% | 1017.9 hPa | 0 mm | - | - | - |
| 1787493572 | 21.11° C | 4% | 1017.9 hPa | 0 mm | - | - | - |
| 1787492968 | 21.11° C | 55% | 1018 hPa | 0 mm | - | - | - |
| 1787492893 | 21.11° C | 59% | 1017.9 hPa | 0 mm | - | - | - |
| 1787492597 | 20.56° C | 55% | 1017.9 hPa | 0 mm | - | - | - |
| 1787492305 | 20.56° C | 52% | 1017.9 hPa | 0 mm | - | - | - |
| 1787492091 | 20.56° C | 52% | 1017.9 hPa | 0 mm | - | - | - |
| 1787491793 | 20° C | 48% | 1018 hPa | 0 mm | - | - | - |
| 1787491767 | 20.56° C | 50% | 1018 hPa | 0 mm | - | - | - |
| 1787491724 | 20° C | 48% | 1018 hPa | 0 mm | - | - | - |
| 1787491471 | 20° C | 48% | 1018 hPa | 0 mm | - | - | - |
| 1787491441 | 20° C | 46% | 1018 hPa | 0 mm | - | - | - |
| 1787491175 | 20° C | 46% | 1018 hPa | 0 mm | - | - | - |
| 1787491148 | 20° C | 42% | 1018.1 hPa | 0 mm | - | - | - |
| 1787490854 | 19.44° C | 40% | 1018 hPa | 0 mm | - | - | - |
| 1787490274 | 18.89° C | 41% | 1017.9 hPa | 0 mm | - | - | - |
| 1787490025 | 18.89° C | 41% | 1018 hPa | 0 mm | - | - | - |
| 1787489984 | 18.89° C | 41% | 1018 hPa | 0 mm | - | - | - |
| 1787489701 | 18.89° C | 41% | 1018 hPa | 0 mm | - | - | - |
| 1787489112 | 18.89° C | 42% | 1017.9 hPa | 0 mm | - | - | - |
| 1787488822 | 18.33° C | 42% | 1018 hPa | 0 mm | - | - | - |
| 1787488773 | 18.33° C | 42% | 1018 hPa | 0 mm | - | - | - |
| 1787488245 | 18.33° C | 43% | 1018 hPa | 0 mm | - | - | - |
| 1787487875 | 18.33° C | 44% | 1017.9 hPa | 0 mm | - | - | - |
| 1787487664 | 17.78° C | 46% | 1017.3 hPa | 0 mm | - | - | - |
* Rain latest hour (hover to see other rain measurements)
** Current wind speed in m/s (hover to see current wind gust speed)